Weather in Batetskiy

Russia / Novgorod Oblast     58°38′41″N   30°18′06″E
temp.,
°C
wind,
m/s
gust,
m/s
humid.,
%
clouds,
%
prec.,
mm/h
press.,
hPa
HPBL,
m
4 march, thu
thu400:00+2w61397100 0.6 1003871
03:00−1wnw41179100 1.7 1004690
06:00−3nw399324 0.0 1003421
09:00−3nw378712 0.0 1003429
12:00−1nw36690 0.0 1003906
15:000nw476526 0.2 10041246
18:00−3nw487688 0.2 1004906
21:00−3nnw487594 0.3 10051079
5 march, fri
fri500:00−5wnw378633 0.0 1006378
03:00−5wnw278828 0.0 1007283
06:00−6nw269091 0.0 1007313
09:00−6nnw378572 0.0 1009479
12:00−4nnw357280 0.0 1011777
15:00−4nw357290 0.1 1013868
18:00−4nnw3675100 0.1 1014841
21:00−7nw278679 0.2 1016353
6 march, sat
sat600:00−6nw368878 0.0 1018449
03:00−8wnw259365 0.0 1019199
06:00−8wnw269116 0.0 1018243
09:00−8w25889 0.0 1018267
12:00−3wsw47670 0.0 1017752
15:00−2sw6115339 0.0 10131312
18:00−3sw81689100 0.3 10081412
21:00−1wsw71873100 1.0 10031411
7 march, sun
sun700:00−1wsw71693100 1.8 9971213
03:00−1w51197100 4.7 995796
06:00−5wnw51375100 1.1 9941405
09:00−7w4106083 1.1 9951250
12:00−4wsw7127099 0.0 9941488
15:00−3wnw7155999 0.9 9912226
18:00−6wnw61275100 0.9 9911806
21:00−7nw5108599 1.1 994904
8 march, mon
mon800:00−9nnw51184100 0.3 999868
03:00−10nw51185100 0.3 1002642
06:00−11nw5985100 0.1 1004783
09:00−13nnw5983100 0.1 1007759
12:00−11nnw5876100 0.1 1010868
15:00−10nnw5875100 0.1 1012876
18:00−11nnw4981100 0.1 1015873
21:00−12n4988100 0.1 1017714